Regional Weather Roundup
Issued by NWS

Home | Current Version | Previous Version | Text Only | Print | Product List | Glossary On
Versions: 1 2 3 4 5 6 7 8 9 10 11 12 13 14 15 16 17 18 19 20 21 22 23 24 25 26 27 28 29 30 31 32 33 34 35 36 37 38 39 40 41 42 43 44 45 46 47 48 49 50
000
ASUS45 KREV 261210
RWRNV
NEVADA REGIONAL WEATHER ROUNDUP
NATIONAL WEATHER SERVICE RENO NV
500 AM PDT WED JUL 26 2017

NOTE: "FAIR" INDICATES FEW OR NO CLOUDS BELOW 12,000 FEET WITH NO
SIGNIFICANT WEATHER AND/OR OBSTRUCTIONS TO VISIBILITY.

NVZ001-003-004-261300-
WESTERN NEVADA

CITY           SKY/WX    TMP DP  RH WIND       PRES   REMARKS
RENO           PTCLDY    66  47  50 W7        30.17R
6HR MIN TEMP:  66; 6HR MAX TEMP:  75;

CARSON CITY    FAIR      57  48  72 CALM      30.20R
MINDEN         FAIR      52  46  82 E5        30.20S
FALLON         CLEAR     66  49  54 SW3       30.13R
6HR MIN TEMP:  64; 6HR MAX TEMP:  76;

LOVELOCK       CLEAR     56  45  66 CALM      30.12R
6HR MIN TEMP:  56; 6HR MAX TEMP:  71;

HAWTHORNE      PTCLDY    63  57  82 CALM      30.16R
$$

NVZ002-CAZ072-073-261300-
NORTHERN AND CENTRAL SIERRA

CITY           SKY/WX    TMP DP  RH WIND       PRES   REMARKS
S. LAKE TAHOE  CLEAR     47  43  86 CALM      30.27S
6HR MIN TEMP:  47; 6HR MAX TEMP:  58;

TRUCKEE        PTCLDY    45  43  93 CALM      30.28R
SQUAW VLY 8000   N/A     54  41  62 SW7         N/A
SUSANVILLE     CLEAR     54  45  71 NW5       30.16R
MAMMOTH LAKES  FAIR      44  39  81 CALM      30.35S
6HR MIN TEMP:  44; 6HR MAX TEMP:  62;

BRIDGEPORT     FAIR      46  36  68 CALM      30.31S
$$

NVZ030-031-036-261300-
NORTHERN NEVADA

CITY           SKY/WX    TMP DP  RH WIND       PRES   REMARKS
ELKO           CLEAR     60  52  74 E3        30.21R
6HR MIN TEMP:  58; 6HR MAX TEMP:  72;

WINNEMUCCA     NOT AVBL
WENDOVER       PTCLDY    67  57  70 W5        30.16S
$$

NVZ035-037-261300-
CENTRAL NEVADA

CITY           SKY/WX    TMP DP  RH WIND       PRES   REMARKS
ELY            PTCLDY    51  50  96 MISG      30.31R
6HR MIN TEMP:  51; 6HR MAX TEMP:  58;

EUREKA           N/A     52  48  86 S7        30.27R
6HR MIN TEMP:  52; 6HR MAX TEMP:  60;

$$

NVZ013-014-261300-
SOUTH CENTRAL NEVADA

CITY           SKY/WX    TMP DP  RH WIND       PRES   REMARKS
TONOPAH        CLEAR     59  58  96 N6        30.26R
6HR MIN TEMP:  59; 6HR MAX TEMP:  64; 6HR PCP:  0.01;

$$

NVZ017-020-022-261300-
SOUTHERN NEVADA

CITY           SKY/WX    TMP DP  RH WIND       PRES   REMARKS
LAS VEGAS      PTCLDY    79  67  66 CALM      30.06R
6HR MIN TEMP:  79; 6HR MAX TEMP:  80;

N. LAS VEGAS   MOCLDY    77  66  68 SE5       30.05S
6HR MIN TEMP:  77; 6HR MAX TEMP:  80;

NELLIS AFB     CLEAR     76  67  73 NE7       30.04R
6HR MIN TEMP:  76; 6HR MAX TEMP:  80;

HENDERSON      CLEAR    N/A N/A N/A S6        30.09R
MERCURY        CLOUDY    73  64  73 E7        30.10S
6HR MIN TEMP:  72; 6HR MAX TEMP:  77;

$$



USA.gov is the U.S. government's official web portal to all federal, state and local government web resources and services.